Regional Weather Roundup
Issued by NWS

Home | Current Version | Previous Version | Text Only | Print | Product List | Glossary Off
Versions: 1 2 3 4 5 6 7 8 9 10 11 12 13 14 15 16 17 18 19 20 21 22 23 24 25 26 27 28 29 30 31 32 33 34 35 36 37 38 39 40 41 42 43 44 45 46 47 48 49 50

216
ASUS43 KMKX 091011
RWRWI

WISCONSIN REGIONAL WEATHER ROUNDUP
NATIONAL WEATHER SERVICE MILWAUKEE/SULLIVAN WI
400 AM CST TUE FEB 09 2016

NOTE: "FAIR" INDICATES FEW OR NO CLOUDS BELOW 12,000 FEET WITH NO
SIGNIFICANT WEATHER AND/OR OBSTRUCTIONS TO VISIBILITY.

WIZ001-002-006>008-014>016-023>028-091100-
NORTHWEST WISCONSIN

CITY           SKY/WX    TMP DP  RH WIND       PRES   REMARKS
SUPERIOR ARPT  CLOUDY     6  -3  68 N12       30.04S WCI -10
ASHLAND        CLOUDY     8   5  87 NW6       29.94R FOG     WCI  -2
HAYWARD        CLOUDY     3  -2  79 VRB6      29.93R WCI  -8
SIREN          PTCLDY     3  -4  72 N13       30.00S WCI -14
CUMBERLAND     CLOUDY     5  -2  72 NW14      29.94R WCI -12
RICE LAKE      PTCLDY     4  -2  74 NW7       29.96S WCI  -8
CHETEK         MOCLDY     4  -2  77 NW7       29.95R WCI  -9
LADYSMITH      CLOUDY     7   1  77 NW16      29.89R WCI -11
EAU CLAIRE     CLOUDY     7  -2  66 NW18G26   29.94R WCI -12
MENOMONIE      CLOUDY     7  -1  68 NW9       29.97R WCI  -6
NEW RICHMOND   PTCLDY     6  -2  71 N16G23    29.99S WCI -13
OSCEOLA        MOCLDY     6  -1  71 NW14G20   30.04S WCI -10
$$

WIZ003>005-009-010-017-018-091100-
NORTH CENTRAL WISCONSIN

CITY           SKY/WX    TMP DP  RH WIND       PRES   REMARKS
MANITOWISH WTR LGT SNOW  10   6  83 N10       29.76S WCI  -4
ARBOR VITAE    LGT SNOW  11   6  81 N14       29.75R WCI  -4
WOODRUFF       LGT SNOW  11   6  81 N14       29.75R WCI  -4
RHINELANDER    LGT SNOW  10   4  76 N8        29.74R WCI  -2
EAGLE RIVER    LGT SNOW  10   4  75 N15       29.73R WCI  -7
LAND O LAKES   FLURRIES  10   6  81 N12       29.74R WCI  -4
PHILLIPS       LGT SNOW   7   2  82 NW10G17   29.80R WCI  -8
TOMAHAWK       LGT SNOW   8   4  83 NW8       29.77S WCI  -4
MEDFORD        CLOUDY     6   1  81 NW10G17   29.79S WCI  -9
MERRILL        LGT SNOW   9   4  80 NW8       29.78S WCI  -3
$$

WIZ029-030-035-036-043>047-091100-
CENTRAL WISCONSIN

CITY           SKY/WX    TMP DP  RH WIND       PRES   REMARKS
WAUSAU         LGT SNOW   9   3  77 NW9       29.78R WCI  -4
MOSINEE        FLURRIES   9   3  78 NW10      29.80R WCI  -6
MARSHFIELD     CLOUDY     7   0  73 NW18      29.80S WCI -12
STEVENS POINT  FLURRIES   7   1  78 NW6       29.81R WCI  -4
WAUPACA        FLURRIES  13   6  72 W13       29.79F WCI  -1
WAUTOMA        FLURRIES  11   4  73 NW12      29.82R WCI  -3
WISC RAPIDS    MOCLDY     8   0  69 NW10      29.84R WCI  -6
CAMP DOUGLAS   FLURRIES   9   5  85 NW15      29.85S WCI  -8
$$

WIZ011>013-019>022-031-037>040-048>050-091100-
NORTHEAST WISCONSIN

CITY           SKY/WX    TMP DP  RH WIND       PRES   REMARKS
ANTIGO         FLURRIES   7   4  86 NW10      29.73S WCI  -7
SHAWANO        CLOUDY    15   9  76 NW5       29.78S WCI   7
OCONTO         CLOUDY    15   7  69 N8        29.76S WCI   4
STURGEON BAY   CLOUDY    16   5  62 N14G23    29.75R WCI   1
GREEN BAY      LGT SNOW  15  11  83 NW7       29.76S FOG     WCI   5
MANITOWOC      PTCLDY    14  10  84 NW7       29.75R WCI   4
APPLETON       PTCLDY    12   5  73 W13       29.74S WCI  -3
CLINTONVILLE   FLURRIES  14   7  73 NW10      29.77S WCI   1
OSHKOSH        CLOUDY    13   5  70 NW13      29.76S WCI  -2
$$

WIZ032>034-041-042-053>061-091100-
SOUTHWEST WISCONSIN

CITY           SKY/WX    TMP DP  RH WIND       PRES   REMARKS
LA CROSSE      MOCLDY     9   0  67 N12       29.94R WCI  -6
SPARTA         CLEAR      8   1  74 NW6       29.91R WCI  -2
VIROQUA        MOCLDY     7   1  75 NW12      29.85R WCI  -8
BOSCOBEL       CLEAR     12   2  64 N12G24    29.89S WCI  -2
PRAIRIE DU CHI CLOUDY    13   3  64 NW13G20   29.91R WCI  -2
PLATTEVILLE    CLEAR     11   5  76 NW16      29.83R WCI  -6
$$

WIZ056-057-062-063-064-067-068-091100-
SOUTH CENTRAL WISCONSIN

CITY           SKY/WX    TMP DP  RH WIND       PRES   REMARKS
REEDSBURG      PTCLDY     9   2  75 NW13G18   29.84R WCI  -7
BARABOO/DELLS  MOCLDY     9   2  75 NW12G21   29.82R WCI  -6
LONE ROCK      FLURRIES  12   3  67 NW9       29.86S WCI   0
MINERAL POINT  FLURRIES  12   5  73 NW12G21   29.81R WCI  -2
MADISON        FLURRIES  11   5  77 NW14G23   29.80R WCI  -5
MIDDLETON      CLOUDY    13   7  77 NW14G22   29.81R WCI  -2
WATERTOWN      FLURRIES  13  10  87 NW9G17    29.77R WCI   0
MONROE         FLURRIES  14   9  79 NW15G22   29.78R WCI  -1
JANESVILLE     LGT SNOW  18  12  79 NW15G21   29.78R WCI   3
$$

WIZ051-052-058>065-066-070>072-091100-
SOUTHEAST WISCONSIN

CITY           SKY/WX    TMP DP  RH WIND       PRES   REMARKS
MILWAUKEE      FLURRIES  18  12  77 NW12      29.73S WCI   5
WAUKESHA       LGT SNOW  14  10  85 NW18G24   29.75R WCI  -3
MILWAUKEE/TIMM FLURRIES  18  10  73 NW13      29.76R WCI   4
RACINE         LGT SNOW  18  12  77 NW10      29.75R WCI   6
BURLINGTON     LGT SNOW  15  10  83 NW14      29.74S WCI   0
KENOSHA        LGT SNOW  17  12  80 NW12      29.73R WCI   4
FOND DU LAC    FLURRIES  13   8  81 NW17      29.76S WCI  -4
SHEBOYGAN      FLURRIES  15   9  76 NW10      29.74R WCI   2
WEST BEND      LGT SNOW  14  10  85 NW12G17   29.75R WCI   0
JUNEAU         FLURRIES  11   7  81 NW10G17   29.77S WCI  -2
$$

LSZ147-162-091100-
LAKE SUPERIOR

STATION/POSITION TIME  TEMP    WIND        PRES    WAVE
                       AIR SEA DIR/SP/G            HT/PER
                 (UTC) (F)     (DEG/KT/KT) (MB)    (FT/S)
DEVILS ISLAND    1000   11     360/ 26/ 30 1015.7R
PORT WING        0940   11     340/ 18/ 25 1015.6R
SAXON HARBOR     0940   15                 1012.2R
$$

LMZ867-665-643>646-091100-
LAKE MICHIGAN

STATION/POSITION TIME  TEMP    WIND        PRES    WAVE
                       AIR SEA DIR/SP/G            HT/PER
                 (UTC) (F)     (DEG/KT/KT) (MB)    (FT/S)
CHAMBERS ISLAND  0940   16     310/ 16/ 21 1007.1R
NORTHPORT PIER   0805   17     320/ 21     1006.4R
ALGOMA LAKESHORE 0941          330/ 12/ 16   N/A
KEWAUNEE LAKESHO 0900   16     320/  9/ 15 1006.4S
SHEBOYGAN LAKESH 1000   16     310/ 12/ 14 1008.5R
PORT WASHINGTON  0940   17     320/  8/ 14 1008.5R
MILWAUKEE LAKESH 0910   19     320/  9/ 12   N/A
KENOSHA   LAKESH 1000   18     310/ 14/ 19 1006.8R
$$

TC  - TEMPERATURE IN CELSIUS
VSB - VISIBILITY IN STATUTE MILES
WCI - WIND CHILL INDEX
HX  - HEAT INDEX





USA.gov is the U.S. government's official web portal to all federal, state and local government web resources and services.